Time,TemperatureF,DewpointF,PressureIn,WindDirection,WindDirectionDegrees,WindSpeedMPH,WindSpeedGustMPH,Humidity,HourlyPrecipIn,Conditions,Clouds,dailyrainin,SoftwareType,DateUTC
2013-09-19 00:00:00,65.3,58.0,30.11,NNE,17,0.0,-999.0,76,-99.99,,,0.00,weatherlink.com 1.10,2013-09-19 04:00:00,
2013-09-19 00:15:00,65.0,58.0,30.11,NNE,23,0.0,-999.0,77,-99.99,,,0.00,weatherlink.com 1.10,2013-09-19 04:15:00,
2013-09-19 00:30:00,64.7,58.0,30.11,NNE,25,0.0,-999.0,78,-99.99,,,0.00,weatherlink.com 1.10,2013-09-19 04:30:00,
2013-09-19 00:45:00,64.5,58.0,30.11,NNE,18,0.0,-999.0,79,-99.99,,,0.00,weatherlink.com 1.10,2013-09-19 04:45:00,
2013-09-19 01:00:00,64.5,58.0,30.10,NNE,24,0.0,-999.0,80,-99.99,,,0.00,weatherlink.com 1.10,2013-09-19 05:00:00,
2013-09-19 01:15:00,64.2,58.0,30.10,NNE,24,0.0,-999.0,81,-99.99,,,0.00,weatherlink.com 1.10,2013-09-19 05:15:00,
2013-09-19 01:30:00,63.9,58.0,30.10,NNE,24,0.0,-999.0,82,-99.99,,,0.00,weatherlink.com 1.10,2013-09-19 05:30:00,
2013-09-19 01:45:00,63.1,58.0,30.10,NNE,24,0.0,-999.0,83,-99.99,,,0.00,weatherlink.com 1.10,2013-09-19 05:45:00,
2013-09-19 02:00:00,62.4,58.0,30.10,NNE,24,0.0,-999.0,85,-99.99,,,0.00,weatherlink.com 1.10,2013-09-19 06:00:00,
2013-09-19 02:15:00,62.0,58.0,30.10,NNE,24,0.0,-999.0,86,-99.99,,,0.00,weatherlink.com 1.10,2013-09-19 06:15:00,
2013-09-19 02:30:00,61.5,58.0,30.10,NNE,24,0.0,-999.0,88,-99.99,,,0.00,weatherlink.com 1.10,2013-09-19 06:30:00,
2013-09-19 02:45:00,60.9,58.0,30.09,NNE,24,0.0,-999.0,89,-99.99,,,0.00,weatherlink.com 1.10,2013-09-19 06:45:00,
2013-09-19 03:00:00,60.2,57.0,30.09,NNE,24,0.0,-999.0,90,-99.99,,,0.00,weatherlink.com 1.10,2013-09-19 07:00:00,
2013-09-19 03:15:00,59.9,57.0,30.09,NNE,24,0.0,-999.0,91,-99.99,,,0.00,weatherlink.com 1.10,2013-09-19 07:15:00,
2013-09-19 03:30:00,60.2,58.0,30.09,North,8,0.0,-999.0,91,-99.99,,,0.00,weatherlink.com 1.10,2013-09-19 07:30:00,
2013-09-19 03:45:00,60.4,58.0,30.08,North,3,0.0,-999.0,91,-99.99,,,0.00,weatherlink.com 1.10,2013-09-19 07:45:00,
2013-09-19 04:00:00,60.7,58.0,30.08,North,3,0.0,-999.0,91,-99.99,,,0.00,weatherlink.com 1.10,2013-09-19 08:00:00,
2013-09-19 04:16:00,60.5,58.0,30.08,North,1,0.0,-999.0,91,-99.99,,,0.00,weatherlink.com 1.10,2013-09-19 08:16:00,
2013-09-19 04:30:00,60.7,58.0,30.08,North,4,0.0,-999.0,92,-99.99,,,0.00,weatherlink.com 1.10,2013-09-19 08:30:00,
2013-09-19 04:45:00,61.2,59.0,30.08,North,0,0.0,-999.0,92,-99.99,,,0.00,weatherlink.com 1.10,2013-09-19 08:45:00,
2013-09-19 05:00:00,61.0,58.0,30.08,North,10,0.0,-999.0,91,-99.99,,,0.00,weatherlink.com 1.10,2013-09-19 09:00:00,
2013-09-19 05:15:00,60.5,58.0,30.08,North,10,0.0,-999.0,91,-99.99,,,0.00,weatherlink.com 1.10,2013-09-19 09:15:00,
2013-09-19 05:30:00,60.4,58.0,30.08,North,10,0.0,-999.0,92,-99.99,,,0.00,weatherlink.com 1.10,2013-09-19 09:30:00,
2013-09-19 05:45:00,60.7,58.0,30.08,North,0,0.0,-999.0,92,-99.99,,,0.00,weatherlink.com 1.10,2013-09-19 09:45:00,
2013-09-19 06:00:00,61.2,59.0,30.09,North,3,0.0,-999.0,92,-99.99,,,0.00,weatherlink.com 1.10,2013-09-19 10:00:00,
2013-09-19 06:15:00,61.2,59.0,30.09,North,0,0.0,-999.0,92,-99.99,,,0.00,weatherlink.com 1.10,2013-09-19 10:15:00,
2013-09-19 06:30:00,61.0,59.0,30.09,North,0,0.0,-999.0,92,-99.99,,,0.00,weatherlink.com 1.10,2013-09-19 10:30:00,
2013-09-19 06:45:00,60.9,58.0,30.09,North,0,0.0,-999.0,91,-99.99,,,0.00,weatherlink.com 1.10,2013-09-19 10:45:00,
2013-09-19 07:00:00,60.7,58.0,30.09,North,0,0.0,-999.0,90,-99.99,,,0.00,weatherlink.com 1.10,2013-09-19 11:00:00,
2013-09-19 07:15:00,61.0,58.0,30.09,North,0,0.0,-999.0,89,-99.99,,,0.00,weatherlink.com 1.10,2013-09-19 11:15:00,
2013-09-19 07:30:00,61.5,58.0,30.09,North,0,0.0,-999.0,88,-99.99,,,0.00,weatherlink.com 1.10,2013-09-19 11:30:00,
2013-09-19 07:45:00,61.6,58.0,30.10,North,0,0.0,-999.0,87,-99.99,,,0.00,weatherlink.com 1.10,2013-09-19 11:45:00,
2013-09-19 08:00:00,61.8,57.0,30.10,North,0,0.0,-999.0,85,-99.99,,,0.00,weatherlink.com 1.10,2013-09-19 12:00:00,
2013-09-19 08:15:00,62.7,58.0,30.10,North,0,0.0,-999.0,84,-99.99,,,0.00,weatherlink.com 1.10,2013-09-19 12:15:00,
2013-09-19 08:30:00,63.5,58.0,30.10,North,3,0.0,-999.0,82,-99.99,,,0.00,weatherlink.com 1.10,2013-09-19 12:30:00,
2013-09-19 08:45:00,64.7,59.0,30.10,North,0,0.0,-999.0,81,-99.99,,,0.00,weatherlink.com 1.10,2013-09-19 12:45:00,
2013-09-19 09:00:00,65.0,58.0,30.10,NNE,25,0.0,-999.0,79,-99.99,,,0.00,weatherlink.com 1.10,2013-09-19 13:00:00,
2013-09-19 09:15:00,66.8,59.0,30.11,NNE,27,0.0,-999.0,77,-99.99,,,0.00,weatherlink.com 1.10,2013-09-19 13:15:00,
2013-09-19 09:30:00,67.9,59.0,30.10,NNE,17,0.0,-999.0,73,-99.99,,,0.00,weatherlink.com 1.10,2013-09-19 13:30:00,
2013-09-19 09:45:00,68.6,59.0,30.11,North,3,0.0,-999.0,72,-99.99,,,0.00,weatherlink.com 1.10,2013-09-19 13:45:00,
2013-09-19 10:00:00,69.6,59.0,30.10,North,356,0.0,-999.0,70,-99.99,,,0.00,weatherlink.com 1.10,2013-09-19 14:00:00,
2013-09-19 10:15:00,70.4,59.0,30.10,NNE,30,9.0,-999.0,68,-99.99,,,0.00,weatherlink.com 1.10,2013-09-19 14:15:00,
2013-09-19 10:30:00,71.6,60.0,30.10,NNE,30,0.0,-999.0,66,-99.99,,,0.00,weatherlink.com 1.10,2013-09-19 14:30:00,
2013-09-19 10:45:00,71.8,58.0,30.10,NE,54,7.0,-999.0,63,-99.99,,,0.00,weatherlink.com 1.10,2013-09-19 14:45:00,
2013-09-19 11:00:00,72.0,58.0,30.10,NNE,28,0.0,-999.0,62,-99.99,,,0.00,weatherlink.com 1.10,2013-09-19 15:00:00,
2013-09-19 11:30:00,74.0,56.0,30.10,NNE,25,1.0,-999.0,53,-99.99,,,0.00,weatherlink.com 1.10,2013-09-19 15:30:00,
2013-09-19 12:00:00,74.6,57.0,30.10,North,3,0.0,-999.0,54,-99.99,,,0.00,weatherlink.com 1.10,2013-09-19 16:00:00,
2013-09-19 12:15:00,74.6,58.0,30.10,NNE,27,7.0,-999.0,57,-99.99,,,0.00,weatherlink.com 1.10,2013-09-19 16:15:00,
2013-09-19 12:30:00,74.9,58.0,30.09,North,10,0.0,-999.0,55,-99.99,,,0.00,weatherlink.com 1.10,2013-09-19 16:30:00,
2013-09-19 13:00:00,75.6,56.0,30.08,NNE,23,0.0,-999.0,50,-99.99,,,0.00,weatherlink.com 1.10,2013-09-19 17:00:00,
2013-09-19 13:15:00,76.0,55.0,30.08,North,8,0.0,-999.0,48,-99.99,,,0.00,weatherlink.com 1.10,2013-09-19 17:15:00,
2013-09-19 13:30:00,76.0,55.0,30.08,NNE,17,0.0,-999.0,48,-99.99,,,0.00,weatherlink.com 1.10,2013-09-19 17:30:00,
2013-09-19 13:45:00,76.3,56.0,30.07,NNE,14,1.0,-999.0,49,-99.99,,,0.00,weatherlink.com 1.10,2013-09-19 17:45:00,
2013-09-19 14:00:00,76.7,56.0,30.06,NNW,339,0.0,-999.0,49,-99.99,,,0.00,weatherlink.com 1.10,2013-09-19 18:00:00,
2013-09-19 14:15:00,76.8,56.0,30.06,North,0,0.0,-999.0,49,-99.99,,,0.00,weatherlink.com 1.10,2013-09-19 18:15:00,
2013-09-19 14:30:00,76.8,56.0,30.06,NE,48,0.0,-999.0,49,-99.99,,,0.00,weatherlink.com 1.10,2013-09-19 18:30:00,
2013-09-19 14:45:00,77.2,58.0,30.05,NNE,18,0.0,-999.0,52,-99.99,,,0.00,weatherlink.com 1.10,2013-09-19 18:45:00,
2013-09-19 15:00:00,77.4,58.0,30.05,North,7,0.0,-999.0,51,-99.99,,,0.00,weatherlink.com 1.10,2013-09-19 19:00:00,
2013-09-19 15:15:00,78.1,57.0,30.04,NNE,18,0.0,-999.0,49,-99.99,,,0.00,weatherlink.com 1.10,2013-09-19 19:15:00,
2013-09-19 15:30:00,77.9,58.0,30.03,NNE,18,4.0,-999.0,50,-99.99,,,0.00,weatherlink.com 1.10,2013-09-19 19:30:00,
2013-09-19 15:45:00,77.6,58.0,30.03,ENE,59,7.0,-999.0,51,-99.99,,,0.00,weatherlink.com 1.10,2013-09-19 19:45:00,
2013-09-19 16:00:00,76.7,59.0,30.02,East,83,0.0,-999.0,54,-99.99,,,0.00,weatherlink.com 1.10,2013-09-19 20:00:00,
2013-09-19 16:15:00,77.2,58.0,30.02,NE,45,0.0,-999.0,52,-99.99,,,0.00,weatherlink.com 1.10,2013-09-19 20:15:00,
2013-09-19 16:30:00,77.0,58.0,30.02,NE,38,0.0,-999.0,52,-99.99,,,0.00,weatherlink.com 1.10,2013-09-19 20:30:00,
2013-09-19 16:45:00,77.9,-99.9,30.02,North,0,0.0,-999.0,-999,-99.99,,,0.00,weatherlink.com 1.10,2013-09-19 20:45:00,
2013-09-19 17:00:00,78.3,59.0,30.02,North,359,0.0,-999.0,51,-99.99,,,0.00,weatherlink.com 1.10,2013-09-19 21:00:00,
2013-09-19 17:30:00,78.1,58.0,30.02,North,354,0.0,-999.0,51,-99.99,,,0.00,weatherlink.com 1.10,2013-09-19 21:30:00,
2013-09-19 17:45:00,77.6,58.0,30.02,NE,55,0.0,-999.0,51,-99.99,,,0.00,weatherlink.com 1.10,2013-09-19 21:45:00,
2013-09-19 18:00:00,77.2,58.0,30.02,NE,42,0.0,-999.0,51,-99.99,,,0.00,weatherlink.com 1.10,2013-09-19 22:00:00,
2013-09-19 18:15:00,76.3,57.0,30.02,ENE,58,0.0,-999.0,52,-99.99,,,0.00,weatherlink.com 1.10,2013-09-19 22:15:00,
2013-09-19 18:30:00,76.1,58.0,30.03,NNE,24,0.0,-999.0,53,-99.99,,,0.00,weatherlink.com 1.10,2013-09-19 22:30:00,
2013-09-19 18:45:00,75.3,58.0,30.03,North,7,0.0,-999.0,55,-99.99,,,0.00,weatherlink.com 1.10,2013-09-19 22:45:00,
2013-09-19 19:00:00,74.9,59.0,30.03,North,7,0.0,-999.0,58,-99.99,,,0.00,weatherlink.com 1.10,2013-09-19 23:00:00,
2013-09-19 19:15:00,74.0,60.0,30.03,North,7,0.0,-999.0,61,-99.99,,,0.00,weatherlink.com 1.10,2013-09-19 23:15:00,
2013-09-19 19:30:00,72.8,60.0,30.03,North,7,0.0,-999.0,64,-99.99,,,0.00,weatherlink.com 1.10,2013-09-19 23:30:00,
2013-09-19 19:45:00,71.6,60.0,30.03,North,8,0.0,-999.0,67,-99.99,,,0.00,weatherlink.com 1.10,2013-09-19 23:45:00,
2013-09-19 20:00:00,70.9,61.0,30.03,North,8,0.0,-999.0,70,-99.99,,,0.00,weatherlink.com 1.10,2013-09-20 00:00:00,
2013-09-19 20:15:00,70.4,61.0,30.04,North,8,0.0,-999.0,72,-99.99,,,0.00,weatherlink.com 1.10,2013-09-20 00:15:00,
2013-09-19 20:30:00,70.1,61.0,30.04,North,8,0.0,-999.0,73,-99.99,,,0.00,weatherlink.com 1.10,2013-09-20 00:30:00,
2013-09-19 20:45:00,69.6,61.0,30.05,North,8,0.0,-999.0,75,-99.99,,,0.00,weatherlink.com 1.10,2013-09-20 00:45:00,
2013-09-19 21:00:00,68.9,61.0,30.05,North,8,0.0,-999.0,77,-99.99,,,0.00,weatherlink.com 1.10,2013-09-20 01:00:00,
2013-09-19 21:15:00,68.6,62.0,30.05,North,8,0.0,-999.0,79,-99.99,,,0.00,weatherlink.com 1.10,2013-09-20 01:15:00,
2013-09-19 21:30:00,68.1,62.0,30.05,North,8,0.0,-999.0,82,-99.99,,,0.00,weatherlink.com 1.10,2013-09-20 01:30:00,
2013-09-19 21:45:00,67.8,63.0,30.05,North,8,0.0,-999.0,84,-99.99,,,0.00,weatherlink.com 1.10,2013-09-20 01:45:00,
2013-09-19 22:00:00,67.4,62.0,30.05,North,8,0.0,-999.0,84,-99.99,,,0.00,weatherlink.com 1.10,2013-09-20 02:00:00,
2013-09-19 22:15:00,67.4,63.0,30.05,North,8,0.0,-999.0,85,-99.99,,,0.00,weatherlink.com 1.10,2013-09-20 02:15:00,
2013-09-19 22:30:00,67.6,63.0,30.04,NNE,13,0.0,-999.0,85,-99.99,,,0.00,weatherlink.com 1.10,2013-09-20 02:30:00,
2013-09-19 22:45:00,67.3,63.0,30.04,NNE,13,0.0,-999.0,85,-99.99,,,0.00,weatherlink.com 1.10,2013-09-20 02:45:00,
2013-09-19 23:00:00,67.1,63.0,30.03,NNE,13,0.0,-999.0,87,-99.99,,,0.00,weatherlink.com 1.10,2013-09-20 03:00:00,
2013-09-19 23:15:00,66.9,63.0,30.03,NNE,13,0.0,-999.0,88,-99.99,,,0.00,weatherlink.com 1.10,2013-09-20 03:15:00,
2013-09-19 23:30:00,67.6,64.0,30.02,East,79,0.0,-999.0,88,-99.99,,,0.00,weatherlink.com 1.10,2013-09-20 03:30:00,
2013-09-19 23:45:00,67.8,64.0,30.02,NE,56,0.0,-999.0,88,-99.99,,,0.00,weatherlink.com 1.10,2013-09-20 03:45:00,